Regional Weather Roundup
Issued by NWS

Home | Current Version | Previous Version | Text Only | Print | Product List | Glossary On
Versions: 1 2 3 4 5 6 7 8 9 10 11 12 13 14 15 16 17 18 19 20 21 22 23 24 25 26 27 28 29 30 31 32 33 34 35 36 37 38 39 40 41 42 43 44 45 46 47 48 49 50
000
ASCA42 TJSJ 261510
RWRPR
PUERTO RICO/U.S. VIRGIN ISLANDS HOURLY WEATHER ROUNDUP
NATIONAL WEATHER SERVICE SAN JUAN PR
1100 AM AST TUE MAY 26 2015

PRZ001-004-261600-
PUERTO RICO

CITY           SKY/WX    TMP DP  RH WIND       PRES   REMARKS
SAN JUAN LMM   MOSUNNY   84  72  65 NE12G18   30.06F
AGUADILLA      SUNNY     86  70  58 E17       30.08S HX  90
CEIBA          SUNNY     84  72  65 NE10      30.08S
$$

PRZ006-007-261600-
U.S. VIRGIN ISLANDS

CITY           SKY/WX    TMP DP  RH WIND       PRES   REMARKS
CHARLOTTE AMA  MOSUNNY   86  72  62 NE7       30.04F HX  92
CHRISTIANSTED  LGT RAIN  77  72  83 SE6       30.05F
$$

HOURLY WEATHER ROUNDUP FOR THE NEWS MEDIA

CITY           SKY/WX    TMP DP  RH WIND       PRES   REMARKS
ORLANDO        PTSUNNY   84  71  65 SE8       30.22S
NEW YORK       MOSUNNY   73  59  61 S10       30.23S
NEWARK         MOSUNNY   82  60  47 SW12      30.20S
CHICAGO        CLOUDY    71  65  81 S10       29.88F
HARTFORD       MOSUNNY   72  59  63 S17       30.20S
DALLAS         DRZL/FOG  67  65  93 CALM      30.01R VSB 1
PHILADELPHIA   MOSUNNY   79  61  53 S13       30.23F
LOS ANGELES    CLOUDY    60  55  83 CALM      30.00S
WASHINGTON DC  PTSUNNY   78  63  59 SW8       30.23S



USA.gov is the U.S. government's official web portal to all federal, state and local government web resources and services.